[[{"header":{"parameterUnit":"m.s-1","parameterCategory":1,"la1":30.2991,"la2":30.254,"lo1":-89.0895,"lo2":-89.0444,"dy":0.0017,"dx":0.0017,"nx":28,"ny":28,"refTime":"2024-07-03T03:00:00:Z","depth":0,"parameterNumber":2,"parameterNumberName":"U-component_of_WINDS"},"data":[0,0,0,0,0,0,0,0,0,0,0,0,0,0,0,0,0,0,0,0,0,0,0,0,0,0,0,0,0,0,0,0,0,0,0,0,0,0,0,0,0,0,0,0,0,0,0,0,0,0,0,0,0,0,0,0,0,0,2.265,2.265,0,2.2712,2.2713,2.2714,2.2668,2.2666,2.2664,2.2662,2.2728,2.2731,2.2735,0,0,0,0,0,0,0,0,0,0,0,0,0,2.249,2.2493,2.265,2.2651,2.2651,2.2712,2.2713,2.2714,2.2669,2.2666,2.2664,2.2662,2.2727,2.2731,2.2735,0,0,0,0,0,0,0,0,0,0,0,0,0,2.2557,2.2494,2.265,2.2636,2.2635,2.2712,2.2713,2.2714,2.2669,2.2666,2.2663,2.266,2.2725,2.2731,2.2736,2.283,0,0,2.2753,2.2755,0,0,0,0,0,0,0,0,2.2553,2.2563,2.2637,2.2637,2.2637,2.2679,2.2681,2.2753,2.267,2.2657,2.2662,2.2659,2.2714,2.272,2.2739,2.2833,2.2836,2.2753,2.2756,2.2759,2.276,0,0,0,0,0,0,0,2.2548,2.256,2.2674,2.2638,2.2638,2.2626,2.2633,2.2694,2.2702,2.2657,2.2654,2.2662,2.2714,2.2734,2.274,2.2836,2.2753,2.2758,2.2761,2.2763,2.3006,2.3009,0,0,0,0,0,0,2.2545,2.2556,2.2672,2.2676,2.2586,2.2632,2.2639,2.2669,2.2701,2.2703,2.2665,2.266,2.2726,2.2734,2.2742,2.2851,2.2759,2.2764,2.2767,2.3003,2.3007,2.3011,0,0,0,0,0,0,2.2542,2.2556,2.267,2.2615,2.2629,2.2638,2.2672,2.2672,2.2692,2.2706,2.2707,2.2684,2.2724,2.2735,2.2807,2.2853,2.2766,2.2771,2.2999,2.3004,2.3009,2.3072,0,0,0,0,0,0,2.2537,2.2555,2.2591,2.2617,2.2632,2.2735,2.2675,2.2675,2.2701,2.2695,2.2725,2.2727,2.2722,2.2799,2.2813,2.2859,2.2775,2.2995,2.3002,2.3007,2.3066,2.3078,2.3089,0,0,0,0,0,2.2532,2.2608,2.2593,2.2608,2.2678,2.2737,2.2746,2.2739,2.2705,2.2741,2.2749,2.2726,2.2846,2.2807,2.2822,2.287,2.2992,2.3,2.3007,2.3061,2.3076,2.3089,0,0,0,0,0,0,2.2589,2.2611,2.2595,2.2681,2.2708,2.273,2.2775,2.2756,2.2793,2.2787,2.2777,2.2784,2.2859,2.2872,2.2829,2.2961,2.2914,2.2924,2.295,2.2964,2.2976,2.297,2.278,0,0,0,0,0,2.2611,2.2658,2.2675,2.2749,2.2763,2.2767,2.2793,2.2785,2.2812,2.2823,2.2837,2.2864,2.2908,2.2937,2.2978,2.3068,2.3072,2.3108,2.3119,2.3129,2.3138,2.3183,2.3198,2.3034,2.3034,2.3034,0,0,2.2658,2.2676,2.2707,2.2761,2.278,2.2828,2.2777,2.283,2.2865,2.2831,2.29,2.2911,2.2941,2.3021,2.3057,2.3034,2.3184,2.3138,2.3146,2.3149,2.3192,2.3207,2.3221,2.3039,2.3038,2.3038,0,0,2.2768,2.2787,2.285,2.2869,2.2899,2.29,2.2915,2.2939,2.2945,2.3014,2.2988,2.303,2.3106,2.3127,2.3147,2.3262,2.324,2.3275,2.3336,2.338,2.3393,2.3404,2.3443,2.3457,2.3284,2.3285,2.3285,0,2.2823,2.2894,2.2884,2.2939,2.2962,2.2932,2.2994,2.3014,2.3056,2.3073,2.3046,2.3138,2.3157,2.324,2.3267,2.3286,2.3301,2.3272,2.3392,2.3403,2.3414,2.345,2.3465,2.3289,2.3288,2.3288,2.3287,0,2.2959,2.3008,2.3055,2.3094,2.3123,2.3182,2.318,2.321,2.3199,2.3203,2.3271,2.3292,2.3335,2.3354,2.3345,2.3436,2.342,2.3393,2.3345,2.3433,2.3467,2.3481,2.3294,2.3293,2.3292,2.3291,0,0,2.3108,2.3138,2.3156,2.3171,2.32,2.3238,2.3294,2.3335,2.336,2.3389,2.3435,2.3498,2.3472,2.3496,2.3488,2.3527,2.3613,2.3495,2.3495,2.3514,2.3711,2.373,2.3746,2.3599,2.3601,2.3604,2.3708,0,2.3217,2.3314,2.3305,2.3397,2.344,2.3411,2.3459,2.3482,2.3486,2.3524,2.3529,2.3573,2.3537,2.355,2.3587,2.3594,2.3652,2.3587,2.364,2.3642,2.3632,2.3765,2.3786,2.3883,2.3721,2.3723,2.3725,0,2.3358,2.339,2.3485,2.3504,2.3522,2.3566,2.3601,2.3638,2.3662,2.3662,2.3687,2.3672,2.3726,2.3678,2.3752,2.3708,2.3729,2.3735,2.3739,2.3743,2.3688,2.377,2.3914,2.3928,2.3746,2.3745,2.3743,0,2.3454,2.3521,2.3586,2.3601,2.3625,2.3656,2.3668,2.3689,2.3713,2.3743,2.3759,2.3796,2.3816,2.3845,2.384,2.3805,2.3915,2.3866,2.3915,2.3915,2.3939,2.3937,2.4087,2.3955,2.3955,2.3955,2.3955,0,2.3576,2.3635,2.3629,2.3669,2.3733,2.3722,2.3786,2.3794,2.3812,2.3852,2.3829,2.3867,2.3859,2.3896,2.3892,2.3953,2.3963,2.3964,2.3962,2.3965,2.3964,2.3978,2.397,2.3959,2.3958,2.3957,2.3956,0,2.3694,2.3693,2.3761,2.3777,2.3783,2.3829,2.3843,2.388,2.3881,2.3932,2.3943,2.3946,2.3989,2.3986,2.4035,2.4032,2.4106,2.4097,2.4098,2.4095,2.4144,2.4138,2.4306,2.4326,2.4183,2.4184,2.4186,0,2.3772,2.3816,2.3836,2.3861,2.3874,2.3915,2.3938,2.3928,2.3954,2.3983,2.4016,2.4056,2.4087,2.4156,2.4162,2.4199,2.4189,2.4245,2.4195,2.4195,2.4188,2.4184,2.4188,2.4255,2.4257,2.4258,2.4259,0,2.3909,2.3905,2.394,2.3974,2.4002,2.4029,2.4053,2.4074,2.4067,2.4096,2.4139,2.4163,2.4211,2.425,2.4284,2.4296,2.4276,2.4275,2.4288,2.4291,2.4288,2.4288,2.4123,2.4271,2.427,2.4269,2.4268,2.4268,2.4007,2.4044,2.4063,2.4102,2.4118,2.4141,2.4175,2.418,2.4215,2.4253,2.4245,2.4292,2.4312,2.4355,2.4369,2.4405,2.4385,2.4405,2.4409,2.4414,2.4418,2.4283,2.4412,2.4412,2.4411,2.4411,2.4411,0,2.4141,2.4151,2.4187,2.422,2.425,2.4228,2.4252,2.4279,2.432,2.434,2.4371,2.4418,2.4455,2.4464,2.4499,2.4526,2.4517,2.4535,2.4533,2.4535,2.4435,2.442,2.4541,2.4541,2.4541,2.4541,2.4541,2.4541,2.4214,2.4274,2.4272,2.4339,2.4348,2.4393,2.4409,2.4429,2.4444,2.4498,2.4528,2.4533,2.4547,2.4583,2.4616,2.4617,2.463,2.4652,2.4649,2.4556,2.4543,2.453,2.4515,2.4655,2.4655,2.4746,2.4746,2.4747]},{"header":{"parameterUnit":"m.s-1","parameterCategory":1,"la1":30.2991,"la2":30.254,"lo1":-89.0895,"lo2":-89.0444,"dy":0.0017,"dx":0.0017,"nx":28,"ny":28,"refTime":"2024-07-03T03:00:00:Z","depth":0,"parameterNumber":3,"parameterNumberName":"V-component_of_WINDS"},"data":[0,0,0,0,0,0,0,0,0,0,0,0,0,0,0,0,0,0,0,0,0,0,0,0,0,0,0,0,0,0,0,0,0,0,0,0,0,0,0,0,0,0,0,0,0,0,0,0,0,0,0,0,0,0,0,0,0,0,5.0644,5.0645,0,5.0726,5.0727,5.0728,5.0692,5.069,5.0688,5.0686,5.0763,5.0767,5.077,0,0,0,0,0,0,0,0,0,0,0,0,0,5.0446,5.045,5.0644,5.0645,5.0646,5.0726,5.0727,5.0728,5.0692,5.069,5.0688,5.0685,5.0761,5.0766,5.0771,0,0,0,0,0,0,0,0,0,0,0,0,0,5.053,5.0451,5.0643,5.0638,5.0638,5.0726,5.0727,5.0729,5.0693,5.069,5.0687,5.0684,5.076,5.0766,5.0771,5.0867,0,0,5.0789,5.0792,0,0,0,0,0,0,0,0,5.0525,5.0537,5.0638,5.0638,5.0639,5.0696,5.0685,5.0775,5.0694,5.0672,5.0686,5.0683,5.0742,5.075,5.0771,5.0871,5.0874,5.079,5.0793,5.0796,5.0797,0,0,0,0,0,0,0,5.052,5.0534,5.0676,5.0639,5.064,5.0628,5.0637,5.0702,5.0723,5.0674,5.0671,5.0682,5.0742,5.0766,5.0773,5.0875,5.079,5.0795,5.0798,5.0801,5.1054,5.1057,0,0,0,0,0,0,5.0515,5.0529,5.0673,5.0679,5.0574,5.0634,5.0644,5.068,5.0722,5.0725,5.0684,5.068,5.0757,5.0766,5.0775,5.0888,5.0796,5.0801,5.0805,5.1051,5.1055,5.1058,0,0,0,0,0,0,5.0511,5.0528,5.067,5.0603,5.062,5.0641,5.0682,5.0684,5.0707,5.073,5.0733,5.0705,5.0755,5.0767,5.0844,5.089,5.0804,5.0809,5.1047,5.1052,5.1057,5.1116,0,0,0,0,0,0,5.0505,5.0527,5.0566,5.0604,5.0624,5.0741,5.0685,5.0687,5.0719,5.0713,5.0751,5.0754,5.0754,5.0836,5.085,5.0897,5.0814,5.1043,5.1049,5.1055,5.111,5.1122,5.1133,0,0,0,0,0,5.0498,5.0578,5.0568,5.0586,5.0674,5.0744,5.0754,5.0755,5.0723,5.076,5.0774,5.0752,5.0884,5.0844,5.086,5.0909,5.104,5.1048,5.1055,5.1105,5.112,5.1133,0,0,0,0,0,0,5.0542,5.0583,5.0572,5.0668,5.0703,5.0738,5.0785,5.0772,5.0815,5.0808,5.0804,5.0813,5.0893,5.0909,5.0864,5.1002,5.0956,5.0967,5.0989,5.1004,5.1015,5.1008,5.0819,0,0,0,0,0,5.0563,5.062,5.0651,5.0732,5.075,5.0765,5.0795,5.0793,5.0828,5.0842,5.0862,5.0894,5.0942,5.0974,5.102,5.1113,5.1118,5.1154,5.1165,5.1174,5.1183,5.123,5.1246,5.1082,5.1082,5.1082,0,0,5.0606,5.0636,5.0671,5.0741,5.0768,5.0823,5.0777,5.0838,5.0878,5.085,5.0925,5.094,5.0976,5.1061,5.1099,5.1077,5.123,5.1184,5.1191,5.1195,5.124,5.1255,5.1269,5.1087,5.1086,5.1085,0,0,5.0713,5.0743,5.0812,5.084,5.0882,5.0891,5.0908,5.0945,5.0955,5.103,5.101,5.1056,5.114,5.1165,5.1189,5.1305,5.1285,5.1319,5.1378,5.1424,5.1437,5.1449,5.1487,5.1502,5.1328,5.1328,5.1328,0,5.0761,5.0846,5.0849,5.0912,5.0941,5.0921,5.0989,5.1016,5.1069,5.1089,5.1064,5.1167,5.119,5.1279,5.1308,5.1329,5.1345,5.1314,5.1436,5.1447,5.1458,5.1494,5.1509,5.1332,5.1332,5.1331,5.1331,0,5.0901,5.0961,5.1011,5.1066,5.1102,5.1167,5.1176,5.1211,5.1206,5.1216,5.1291,5.1318,5.1368,5.1389,5.1383,5.1477,5.1461,5.1436,5.1389,5.1477,5.1511,5.1526,5.1338,5.1336,5.1335,5.1334,0,0,5.1038,5.1093,5.1112,5.1135,5.118,5.1224,5.1286,5.1337,5.1366,5.1404,5.1454,5.1525,5.1502,5.1529,5.1525,5.1567,5.1653,5.1536,5.1536,5.1555,5.1754,5.1772,5.1788,5.1641,5.1644,5.1646,5.1751,0,5.1146,5.1259,5.1263,5.1364,5.1417,5.1398,5.1452,5.1483,5.1495,5.1538,5.1549,5.1599,5.1566,5.1582,5.1622,5.1634,5.1693,5.1627,5.1684,5.1686,5.1675,5.1807,5.1826,5.1923,5.1764,5.1767,5.1768,0,5.1288,5.1332,5.144,5.1475,5.1497,5.1546,5.1592,5.1635,5.1669,5.1674,5.1704,5.1695,5.1755,5.1708,5.1789,5.1744,5.1768,5.1777,5.1781,5.1785,5.1731,5.1812,5.1955,5.1969,5.179,5.1788,5.1787,0,5.1374,5.146,5.1535,5.1556,5.1599,5.1634,5.1653,5.1684,5.1714,5.1753,5.1771,5.1817,5.1841,5.1874,5.1876,5.1842,5.1957,5.191,5.196,5.196,5.1983,5.1981,5.213,5.2002,5.2002,5.2002,5.2001,0,5.1493,5.1559,5.1573,5.1619,5.1692,5.1694,5.1764,5.178,5.1807,5.1853,5.1839,5.1882,5.1883,5.1926,5.1927,5.1992,5.2004,5.2007,5.2006,5.2008,5.2007,5.2021,5.2014,5.2006,5.2005,5.2004,5.2003,0,5.16,5.1613,5.1693,5.1729,5.1739,5.179,5.1818,5.186,5.187,5.1929,5.1942,5.1957,5.2007,5.2012,5.2069,5.207,5.2148,5.2141,5.2138,5.2136,5.2184,5.2179,5.2346,5.2367,5.2227,5.2229,5.223,0,5.1675,5.1726,5.1767,5.1798,5.1819,5.187,5.19,5.1903,5.1935,5.1977,5.2013,5.2062,5.2101,5.2181,5.2194,5.2237,5.223,5.2285,5.2236,5.2235,5.2228,5.2224,5.2228,5.2294,5.2296,5.2297,5.2298,0,5.1805,5.1809,5.1855,5.1904,5.1941,5.1979,5.2014,5.2039,5.2046,5.2082,5.2134,5.2165,5.2224,5.2271,5.2313,5.2329,5.2314,5.2314,5.2327,5.2328,5.2323,5.2324,5.2162,5.2309,5.2308,5.2307,5.2307,5.2306,5.1897,5.194,5.1975,5.2027,5.2054,5.2087,5.2128,5.2143,5.2188,5.2237,5.2236,5.2292,5.2322,5.2378,5.2397,5.2439,5.242,5.244,5.2444,5.2449,5.2453,5.2318,5.2447,5.2446,5.2446,5.2446,5.2446,0,5.2024,5.2046,5.2093,5.2144,5.2183,5.2169,5.2206,5.2239,5.229,5.2321,5.236,5.2418,5.2463,5.2481,5.2525,5.2555,5.2549,5.2566,5.2563,5.2566,5.2468,5.2451,5.257,5.257,5.257,5.257,5.257,5.257,5.2095,5.2166,5.2174,5.2258,5.2278,5.2335,5.2358,5.2387,5.2411,5.2478,5.2516,5.2529,5.2553,5.2598,5.2638,5.2642,5.2658,5.2678,5.2678,5.2586,5.2573,5.2561,5.2545,5.2682,5.2682,5.2772,5.2773,5.2774]}]]